Time,TemperatureF,DewpointF,PressureIn,WindDirection,WindDirectionDegrees,WindSpeedMPH,WindSpeedGustMPH,Humidity,HourlyPrecipIn,Conditions,Clouds,dailyrainin,SolarRadiationWatts/m^2,SoftwareType,DateUTC
2013-03-15 00:00:00,38.6,23.4,30.08,NW,312,1.0,5.0,54,0.00,,SCT,0.00,0.0,WeatherDisplay:10.37,2013-03-15 04:00:00,
2013-03-15 00:05:00,38.7,23.5,30.08,NW,305,1.1,3.5,54,0.00,,SCT,0.00,0.0,WeatherDisplay:10.37,2013-03-15 04:05:00,
2013-03-15 00:10:00,38.9,23.7,30.07,West,269,2.7,4.6,54,0.00,,SCT,0.00,0.0,WeatherDisplay:10.37,2013-03-15 04:10:00,
2013-03-15 00:15:00,38.9,24.1,30.08,WSW,239,0.7,4.6,55,0.00,,SCT,0.00,0.0,WeatherDisplay:10.37,2013-03-15 04:15:00,
2013-03-15 00:20:00,39.0,23.7,30.08,West,272,1.4,11.5,54,0.00,,SCT,0.00,0.0,WeatherDisplay:10.37,2013-03-15 04:20:00,
2013-03-15 00:25:00,39.0,23.3,30.08,West,279,3.3,8.1,53,0.00,,SCT,0.00,0.0,WeatherDisplay:10.37,2013-03-15 04:25:00,
2013-03-15 00:30:00,38.9,23.7,30.08,NW,313,4.0,9.2,54,0.00,,SCT,0.00,0.0,WeatherDisplay:10.37,2013-03-15 04:30:00,
2013-03-15 00:35:00,38.6,23.8,30.08,NW,313,2.1,3.5,55,0.00,,SCT,0.00,0.0,WeatherDisplay:10.37,2013-03-15 04:35:00,
2013-03-15 00:40:00,38.7,23.9,30.08,WSW,247,1.4,3.5,55,0.00,,SCT,0.00,0.0,WeatherDisplay:10.37,2013-03-15 04:40:00,
2013-03-15 00:45:00,38.8,24.0,30.08,WNW,302,0.2,3.5,55,0.00,,SCT,0.00,0.0,WeatherDisplay:10.37,2013-03-15 04:45:00,
2013-03-15 00:50:00,38.8,24.0,30.08,North,358,2.2,2.2,55,0.00,,SCT,0.00,0.0,WeatherDisplay:10.37,2013-03-15 04:50:00,
2013-03-15 00:55:00,38.7,23.5,30.08,SW,215,0.9,3.5,54,0.00,,SCT,0.00,0.0,WeatherDisplay:10.37,2013-03-15 04:55:00,
2013-03-15 01:00:00,38.7,23.5,30.08,West,278,3.4,4.6,54,0.00,,SCT,0.00,0.0,WeatherDisplay:10.37,2013-03-15 05:00:00,
2013-03-15 01:05:00,38.4,24.1,30.08,WSW,255,0.3,1.1,56,0.00,,SCT,0.00,0.0,WeatherDisplay:10.37,2013-03-15 05:05:00,
2013-03-15 01:10:00,37.9,24.0,30.09,WSW,251,1.5,3.5,57,0.00,,SCT,0.00,0.0,WeatherDisplay:10.37,2013-03-15 05:10:00,
2013-03-15 01:15:00,38.0,24.1,30.09,WNW,290,0.1,2.3,57,0.00,,SCT,0.00,0.0,WeatherDisplay:10.37,2013-03-15 05:15:00,
2013-03-15 01:20:00,38.0,24.5,30.09,SSW,195,2.7,4.6,58,0.00,,SCT,0.00,0.0,WeatherDisplay:10.37,2013-03-15 05:20:00,
2013-03-15 01:25:00,38.0,24.1,30.08,WSW,251,1.9,4.0,57,0.00,,SCT,0.00,0.0,WeatherDisplay:10.37,2013-03-15 05:25:00,
2013-03-15 01:30:00,37.8,24.3,30.08,West,268,1.6,3.5,58,0.00,,SCT,0.00,0.0,WeatherDisplay:10.37,2013-03-15 05:30:00,
2013-03-15 01:35:00,38.0,24.1,30.08,WNW,291,0.8,3.5,57,0.00,,SCT,0.00,0.0,WeatherDisplay:10.37,2013-03-15 05:35:00,
2013-03-15 01:40:00,38.0,24.1,30.08,WSW,254,1.8,4.6,57,0.00,,SCT,0.00,0.0,WeatherDisplay:10.37,2013-03-15 05:40:00,
2013-03-15 01:45:00,38.0,24.1,30.08,West,270,3.1,5.8,57,0.00,,SCT,0.00,0.0,WeatherDisplay:10.37,2013-03-15 05:45:00,
2013-03-15 01:50:00,37.9,24.4,30.08,WSW,237,1.0,5.8,58,0.00,,SCT,0.00,0.0,WeatherDisplay:10.37,2013-03-15 05:50:00,
2013-03-15 01:55:00,38.1,24.2,30.08,NW,314,2.6,3.5,57,0.00,,SCT,0.00,0.0,WeatherDisplay:10.37,2013-03-15 05:55:00,
2013-03-15 02:00:00,38.2,23.9,30.08,West,266,2.5,5.8,56,0.00,,SCT,0.00,0.0,WeatherDisplay:10.37,2013-03-15 06:00:00,
2013-03-15 02:05:00,38.2,24.3,30.08,SW,223,2.6,3.5,57,0.00,,SCT,0.00,0.0,WeatherDisplay:10.37,2013-03-15 06:05:00,
2013-03-15 02:10:00,38.0,24.1,30.08,WNW,302,2.9,6.9,57,0.00,,SCT,0.00,0.0,WeatherDisplay:10.37,2013-03-15 06:10:00,
2013-03-15 02:15:00,38.0,23.7,30.08,West,279,3.8,9.2,56,0.00,,SCT,0.00,0.0,WeatherDisplay:10.37,2013-03-15 06:15:00,
2013-03-15 02:20:00,38.1,24.2,30.08,WSW,246,3.3,6.9,57,0.00,,SCT,0.00,0.0,WeatherDisplay:10.37,2013-03-15 06:20:00,
2013-03-15 02:25:00,38.3,24.4,30.08,WNW,297,1.5,4.0,57,0.00,,SCT,0.00,0.0,WeatherDisplay:10.37,2013-03-15 06:25:00,
2013-03-15 02:30:00,38.1,24.6,30.08,SSW,204,3.2,5.8,58,0.00,,SCT,0.00,0.0,WeatherDisplay:10.37,2013-03-15 06:30:00,
2013-03-15 02:35:00,38.1,25.0,30.08,WNW,284,3.5,3.5,59,0.00,,SCT,0.00,0.0,WeatherDisplay:10.37,2013-03-15 06:35:00,
2013-03-15 02:40:00,38.2,25.1,30.07,South,185,3.5,9.2,59,0.00,,SCT,0.00,0.0,WeatherDisplay:10.37,2013-03-15 06:40:00,
2013-03-15 02:45:00,38.1,25.0,30.08,SW,221,2.4,4.6,59,0.00,,SCT,0.00,0.0,WeatherDisplay:10.37,2013-03-15 06:45:00,
2013-03-15 02:51:00,38.1,24.6,30.08,SW,218,2.1,8.1,58,0.00,,SCT,0.00,0.0,WeatherDisplay:10.37,2013-03-15 06:51:00,
2013-03-15 02:56:00,38.2,24.7,30.07,WNW,291,3.4,3.4,58,0.00,,SCT,0.00,0.0,WeatherDisplay:10.37,2013-03-15 06:56:00,
2013-03-15 03:01:00,38.3,24.8,30.07,SW,216,1.6,3.5,58,0.00,,SCT,0.00,0.0,WeatherDisplay:10.37,2013-03-15 07:01:00,
2013-03-15 03:06:00,38.2,25.1,30.07,NNW,330,2.9,3.5,59,0.00,,SCT,0.00,0.0,WeatherDisplay:10.37,2013-03-15 07:06:00,
2013-03-15 03:11:00,38.2,24.7,30.08,West,276,2.2,6.0,58,0.00,,SCT,0.00,0.0,WeatherDisplay:10.37,2013-03-15 07:11:00,
2013-03-15 03:16:00,38.2,24.7,30.08,WSW,252,1.2,4.6,58,0.00,,SCT,0.00,0.0,WeatherDisplay:10.37,2013-03-15 07:16:00,
2013-03-15 03:21:00,38.2,24.7,30.08,West,277,3.9,10.4,58,0.00,,SCT,0.00,0.0,WeatherDisplay:10.37,2013-03-15 07:21:00,
2013-03-15 03:26:00,38.0,24.9,30.08,NW,305,2.1,3.5,59,0.00,,SCT,0.00,0.0,WeatherDisplay:10.37,2013-03-15 07:26:00,
2013-03-15 03:31:00,38.1,24.6,30.08,SSE,147,0.9,3.5,58,0.00,,SCT,0.00,0.0,WeatherDisplay:10.37,2013-03-15 07:31:00,
2013-03-15 03:36:00,37.9,24.8,30.08,NNW,341,0.5,3.5,59,0.00,,SCT,0.00,0.0,WeatherDisplay:10.37,2013-03-15 07:36:00,
2013-03-15 03:41:00,37.7,24.6,30.08,SW,221,1.5,3.5,59,0.00,,SCT,0.00,0.0,WeatherDisplay:10.37,2013-03-15 07:41:00,
2013-03-15 03:46:00,37.7,24.6,30.08,West,265,3.1,4.6,59,0.00,,SCT,0.00,0.0,WeatherDisplay:10.37,2013-03-15 07:46:00,
2013-03-15 03:51:00,37.7,25.1,30.07,NW,305,1.1,3.5,60,0.00,,SCT,0.00,0.0,WeatherDisplay:10.37,2013-03-15 07:51:00,
2013-03-15 03:56:00,37.5,24.9,30.07,WSW,257,1.2,3.5,60,0.00,,SCT,0.00,0.0,WeatherDisplay:10.37,2013-03-15 07:56:00,
2013-03-15 04:01:00,37.5,24.9,30.07,WNW,282,1.6,3.5,60,0.00,,SCT,0.00,0.0,WeatherDisplay:10.37,2013-03-15 08:01:00,
2013-03-15 04:06:00,37.4,24.8,30.07,NNW,334,0.6,2.3,60,0.00,,SCT,0.00,0.0,WeatherDisplay:10.37,2013-03-15 08:06:00,
2013-03-15 04:11:00,37.3,25.1,30.07,WSW,243,2.0,3.5,61,0.00,,SCT,0.00,0.0,WeatherDisplay:10.37,2013-03-15 08:11:00,
2013-03-15 04:16:00,37.1,24.9,30.07,WSW,255,0.4,1.1,61,0.00,,SCT,0.00,0.0,WeatherDisplay:10.37,2013-03-15 08:16:00,
2013-03-15 04:21:00,37.0,25.2,30.07,SSW,206,1.7,3.5,62,0.00,,SCT,0.00,0.0,WeatherDisplay:10.37,2013-03-15 08:21:00,
2013-03-15 04:26:00,36.8,25.0,30.07,WNW,289,1.3,2.3,62,0.00,,SCT,0.00,0.0,WeatherDisplay:10.37,2013-03-15 08:26:00,
2013-03-15 04:31:00,36.5,25.1,30.07,West,270,0.0,1.1,63,0.00,,SCT,0.00,0.0,WeatherDisplay:10.37,2013-03-15 08:31:00,
2013-03-15 04:36:00,36.4,25.0,30.07,NW,306,1.0,3.5,63,0.00,,SCT,0.00,0.0,WeatherDisplay:10.37,2013-03-15 08:36:00,
2013-03-15 04:41:00,36.6,24.8,30.07,WSW,249,2.5,3.5,62,0.00,,SCT,0.00,0.0,WeatherDisplay:10.37,2013-03-15 08:41:00,
2013-03-15 04:46:00,36.6,25.2,30.07,NW,305,1.1,2.3,63,0.00,,SCT,0.00,0.0,WeatherDisplay:10.37,2013-03-15 08:46:00,
2013-03-15 04:52:00,36.1,24.7,30.07,WNW,287,0.5,1.0,63,0.00,,SCT,0.00,0.0,WeatherDisplay:10.37,2013-03-15 08:52:00,
2013-03-15 04:57:00,35.7,25.1,30.07,West,277,0.1,2.3,65,0.00,,SCT,0.00,0.0,WeatherDisplay:10.37,2013-03-15 08:57:00,
2013-03-15 05:02:00,35.5,24.9,30.07,West,277,0.0,2.3,65,0.00,,SCT,0.00,0.0,WeatherDisplay:10.37,2013-03-15 09:02:00,
2013-03-15 05:07:00,35.2,25.3,30.07,West,280,1.3,3.5,67,0.00,,SCT,0.00,0.0,WeatherDisplay:10.37,2013-03-15 09:07:00,
2013-03-15 05:12:00,35.2,25.3,30.07,SW,232,0.2,3.5,67,0.00,,SCT,0.00,0.0,WeatherDisplay:10.37,2013-03-15 09:12:00,
2013-03-15 05:17:00,35.1,25.2,30.07,WSW,246,0.4,1.1,67,0.00,,SCT,0.00,0.0,WeatherDisplay:10.37,2013-03-15 09:17:00,
2013-03-15 05:22:00,35.1,25.2,30.07,NW,305,0.9,3.0,67,0.00,,SCT,0.00,0.0,WeatherDisplay:10.37,2013-03-15 09:22:00,
2013-03-15 05:27:00,34.8,25.3,30.07,NW,309,1.6,2.3,68,0.00,,SCT,0.00,0.0,WeatherDisplay:10.37,2013-03-15 09:27:00,
2013-03-15 05:32:00,34.5,25.4,30.07,West,275,1.5,5.8,69,0.00,,SCT,0.00,0.0,WeatherDisplay:10.37,2013-03-15 09:32:00,
2013-03-15 05:37:00,34.7,25.2,30.07,WNW,295,0.7,2.0,68,0.00,,SCT,0.00,0.0,WeatherDisplay:10.37,2013-03-15 09:37:00,
2013-03-15 05:42:00,34.7,25.6,30.07,WNW,288,1.5,3.0,69,0.00,,SCT,0.00,0.0,WeatherDisplay:10.37,2013-03-15 09:42:00,
2013-03-15 05:47:00,34.9,25.4,30.08,SE,145,1.0,2.3,68,0.00,,SCT,0.00,0.0,WeatherDisplay:10.37,2013-03-15 09:47:00,
2013-03-15 05:52:00,34.9,25.4,30.08,West,260,2.9,3.5,68,0.00,,SCT,0.00,0.0,WeatherDisplay:10.37,2013-03-15 09:52:00,
2013-03-15 05:57:00,34.8,25.3,30.08,WSW,241,1.3,3.5,68,0.00,,SCT,0.00,0.0,WeatherDisplay:10.37,2013-03-15 09:57:00,
2013-03-15 06:02:00,35.0,25.5,30.08,West,272,1.8,3.5,68,0.00,,SCT,0.00,0.0,WeatherDisplay:10.37,2013-03-15 10:02:00,
2013-03-15 06:07:00,35.1,25.6,30.08,SW,232,1.9,4.6,68,0.00,,SCT,0.00,0.0,WeatherDisplay:10.37,2013-03-15 10:07:00,
2013-03-15 06:12:00,35.4,25.5,30.08,WNW,288,1.7,3.5,67,0.00,,SCT,0.00,0.0,WeatherDisplay:10.37,2013-03-15 10:12:00,
2013-03-15 06:17:00,35.4,25.5,30.08,West,265,2.7,3.5,67,0.00,,SCT,0.00,0.0,WeatherDisplay:10.37,2013-03-15 10:17:00,
2013-03-15 06:22:00,35.6,25.4,30.08,North,352,1.0,2.3,66,0.00,,SCT,0.00,0.0,WeatherDisplay:10.37,2013-03-15 10:22:00,
2013-03-15 06:27:00,36.0,25.4,30.08,WSW,237,2.4,3.5,65,0.00,,SCT,0.00,0.0,WeatherDisplay:10.37,2013-03-15 10:27:00,
2013-03-15 06:33:00,36.0,25.7,30.08,WNW,292,0.5,1.1,66,0.00,,SCT,0.00,0.0,WeatherDisplay:10.37,2013-03-15 10:33:00,
2013-03-15 06:38:00,36.0,25.7,30.08,SW,226,2.9,5.8,66,0.00,,SCT,0.00,0.0,WeatherDisplay:10.37,2013-03-15 10:38:00,
2013-03-15 06:42:00,35.8,25.5,30.08,WSW,257,0.8,3.5,66,0.00,,SCT,0.00,0.0,WeatherDisplay:10.37,2013-03-15 10:42:00,
2013-03-15 06:48:00,35.6,25.7,30.08,SW,228,1.3,4.0,67,0.00,,SCT,0.00,0.0,WeatherDisplay:10.37,2013-03-15 10:48:00,
2013-03-15 06:53:00,35.3,25.8,30.08,WSW,241,1.0,3.5,68,0.00,,SCT,0.00,0.0,WeatherDisplay:10.37,2013-03-15 10:53:00,
2013-03-15 06:58:00,35.1,25.9,30.08,WSW,243,1.8,3.5,69,0.00,,SCT,0.00,0.0,WeatherDisplay:10.37,2013-03-15 10:58:00,
2013-03-15 07:03:00,35.0,26.5,30.08,WSW,239,2.2,3.5,71,0.00,,SCT,0.00,0.0,WeatherDisplay:10.37,2013-03-15 11:03:00,
2013-03-15 07:08:00,34.9,26.4,30.07,WSW,239,1.5,3.5,71,0.00,,SCT,0.00,0.0,WeatherDisplay:10.37,2013-03-15 11:08:00,
2013-03-15 07:13:00,34.9,26.4,30.08,SSW,208,0.0,0.0,71,0.00,,SCT,0.00,0.0,WeatherDisplay:10.37,2013-03-15 11:13:00,
2013-03-15 07:18:00,34.6,26.2,30.08,WSW,246,0.7,3.5,71,0.00,,SCT,0.00,5.0,WeatherDisplay:10.37,2013-03-15 11:18:00,
2013-03-15 07:23:00,34.4,26.3,30.08,WSW,253,1.6,3.5,72,0.00,CLR,SCT,0.00,7.0,WeatherDisplay:10.37,2013-03-15 11:23:00,
2013-03-15 07:28:00,34.3,26.2,30.08,WSW,237,1.5,3.5,72,0.00,SCT,,0.00,12.0,WeatherDisplay:10.37,2013-03-15 11:28:00,
2013-03-15 07:33:00,34.7,26.9,30.07,WSW,251,0.7,2.3,73,0.00,SCT,,0.00,18.0,WeatherDisplay:10.37,2013-03-15 11:33:00,
2013-03-15 07:38:00,34.9,27.1,30.07,WSW,256,1.1,3.5,73,0.00,SCT,,0.00,25.0,WeatherDisplay:10.37,2013-03-15 11:38:00,
2013-03-15 07:43:00,34.9,26.8,30.08,WSW,254,1.0,3.0,72,0.00,SCT,,0.00,32.0,WeatherDisplay:10.37,2013-03-15 11:43:00,
2013-03-15 07:48:00,35.4,27.3,30.08,SW,216,1.0,3.5,72,0.00,SCT,,0.00,42.0,WeatherDisplay:10.37,2013-03-15 11:48:00,
2013-03-15 07:53:00,35.8,27.3,30.08,SW,216,1.1,2.3,71,0.00,SCT,,0.00,49.0,WeatherDisplay:10.37,2013-03-15 11:53:00,
2013-03-15 07:58:00,36.6,27.4,30.08,WNW,282,2.5,3.5,69,0.00,SCT,,0.00,65.0,WeatherDisplay:10.37,2013-03-15 11:58:00,
2013-03-15 08:03:00,37.0,27.8,30.08,SW,224,4.1,5.8,69,0.00,SCT,,0.00,77.0,WeatherDisplay:10.37,2013-03-15 12:03:00,
2013-03-15 08:08:00,37.6,28.0,30.08,West,264,1.5,3.5,68,0.00,SCT,,0.00,83.0,WeatherDisplay:10.37,2013-03-15 12:08:00,
2013-03-15 08:13:00,37.9,27.9,30.08,West,264,4.2,5.8,67,0.00,FEW,SCT,0.00,116.0,WeatherDisplay:10.37,2013-03-15 12:13:00,
2013-03-15 08:18:00,38.3,28.3,30.08,SW,228,4.8,6.9,67,0.00,FEW,SCT,0.00,123.0,WeatherDisplay:10.37,2013-03-15 12:18:00,
2013-03-15 08:23:00,38.7,28.3,30.08,West,268,4.6,9.2,66,0.00,CLR,SCT,0.00,135.0,WeatherDisplay:10.37,2013-03-15 12:23:00,
2013-03-15 08:28:00,38.8,28.0,30.08,WSW,249,5.0,6.9,65,0.00,FEW,SCT,0.00,123.0,WeatherDisplay:10.37,2013-03-15 12:28:00,
2013-03-15 08:33:00,38.9,27.4,30.08,WSW,245,1.0,3.5,63,0.00,SCT,,0.00,104.0,WeatherDisplay:10.37,2013-03-15 12:33:00,
2013-03-15 08:38:00,38.9,27.4,30.08,WSW,241,1.9,3.5,63,0.00,SCT,,0.00,123.0,WeatherDisplay:10.37,2013-03-15 12:38:00,
2013-03-15 08:43:00,39.2,27.7,30.08,WSW,251,2.9,5.8,63,0.00,SCT,,0.00,142.0,WeatherDisplay:10.37,2013-03-15 12:43:00,
2013-03-15 08:48:00,39.5,27.5,30.08,SW,223,3.9,5.8,62,0.00,SCT,,0.00,156.0,WeatherDisplay:10.37,2013-03-15 12:48:00,
2013-03-15 08:53:00,39.7,27.3,30.07,SW,229,5.4,10.4,61,0.00,SCT,,0.00,135.0,WeatherDisplay:10.37,2013-03-15 12:53:00,
2013-03-15 08:58:00,39.7,26.9,30.08,WSW,243,5.0,6.9,60,0.00,SCT,,0.00,158.0,WeatherDisplay:10.37,2013-03-15 12:58:00,
2013-03-15 09:03:00,40.0,27.6,30.07,SW,227,6.8,9.2,61,0.00,SCT,,0.00,216.0,WeatherDisplay:10.37,2013-03-15 13:03:00,
2013-03-15 09:08:00,40.5,28.5,30.07,SW,233,6.2,10.4,62,0.00,SCT,,0.00,260.0,WeatherDisplay:10.37,2013-03-15 13:08:00,
2013-03-15 09:13:00,41.0,27.8,30.07,SW,228,5.9,9.2,59,0.00,FEW,SCT,0.00,232.0,WeatherDisplay:10.37,2013-03-15 13:13:00,
2013-03-15 09:18:00,41.0,27.8,30.07,SW,225,4.7,9.2,59,0.00,SCT,,0.00,262.0,WeatherDisplay:10.37,2013-03-15 13:18:00,
2013-03-15 09:23:00,41.4,27.7,30.07,WSW,244,7.5,10.4,58,0.00,FEW,SCT,0.00,292.0,WeatherDisplay:10.37,2013-03-15 13:23:00,
2013-03-15 09:28:00,41.5,27.0,30.07,WSW,237,7.1,10.4,56,0.00,SCT,,0.00,204.0,WeatherDisplay:10.37,2013-03-15 13:28:00,
2013-03-15 09:33:00,41.4,27.7,30.06,WSW,257,7.9,10.4,58,0.00,SCT,,0.00,271.0,WeatherDisplay:10.37,2013-03-15 13:33:00,
2013-03-15 09:38:00,41.9,27.8,30.06,SW,232,6.7,9.2,57,0.00,SCT,,0.00,190.0,WeatherDisplay:10.37,2013-03-15 13:38:00,
2013-03-15 09:43:00,41.6,27.1,30.06,SW,221,6.3,9.2,56,0.00,SCT,,0.00,221.0,WeatherDisplay:10.37,2013-03-15 13:43:00,
2013-03-15 09:48:00,41.8,26.8,30.05,SW,226,6.9,10.4,55,0.00,BKN,SCT,0.00,237.0,WeatherDisplay:10.37,2013-03-15 13:48:00,
2013-03-15 09:53:00,42.0,27.9,30.05,SW,228,8.2,11.5,57,0.00,SCT,,0.00,223.0,WeatherDisplay:10.37,2013-03-15 13:53:00,
2013-03-15 09:58:00,42.0,27.0,30.05,SW,214,11.3,13.8,55,0.00,BKN,SCT,0.00,221.0,WeatherDisplay:10.37,2013-03-15 13:58:00,
2013-03-15 10:03:00,42.1,26.2,30.05,SSW,208,9.7,12.7,53,0.00,BKN,SCT,0.00,278.0,WeatherDisplay:10.37,2013-03-15 14:03:00,
2013-03-15 10:08:00,42.5,28.3,30.05,SSW,212,11.8,13.8,57,0.00,SCT,,0.00,283.0,WeatherDisplay:10.37,2013-03-15 14:08:00,
2013-03-15 10:13:00,42.4,28.7,30.05,SW,219,11.1,13.8,58,0.00,SCT,,0.00,290.0,WeatherDisplay:10.37,2013-03-15 14:13:00,
2013-03-15 10:18:00,42.7,30.6,30.05,SSW,205,12.3,13.8,62,0.00,SCT,,0.00,339.0,WeatherDisplay:10.37,2013-03-15 14:18:00,
2013-03-15 10:23:00,43.5,30.5,30.05,SSW,209,12.5,15.0,60,0.00,SCT,,0.00,345.0,WeatherDisplay:10.37,2013-03-15 14:23:00,
2013-03-15 10:28:00,43.5,30.1,30.04,SW,218,9.5,11.5,59,0.00,SCT,,0.00,457.0,WeatherDisplay:10.37,2013-03-15 14:28:00,
2013-03-15 10:33:00,44.2,30.8,30.04,SSW,201,10.4,11.5,59,0.00,FEW,SCT,0.00,439.0,WeatherDisplay:10.37,2013-03-15 14:33:00,
2013-03-15 10:38:00,43.7,29.9,30.04,SSW,200,10.7,14.0,58,0.00,FEW,SCT,0.00,385.0,WeatherDisplay:10.37,2013-03-15 14:38:00,
2013-03-15 10:43:00,43.8,30.4,30.03,SW,214,10.2,11.5,59,0.00,SCT,,0.00,399.0,WeatherDisplay:10.37,2013-03-15 14:43:00,
2013-03-15 10:48:00,43.9,30.1,30.03,SSW,206,10.2,13.8,58,0.00,SCT,,0.00,573.0,WeatherDisplay:10.37,2013-03-15 14:48:00,
2013-03-15 10:53:00,44.6,30.3,30.03,SSW,210,10.2,11.5,57,0.00,FEW,SCT,0.00,538.0,WeatherDisplay:10.37,2013-03-15 14:53:00,
2013-03-15 10:58:00,45.4,31.9,30.03,SW,226,11.2,15.0,59,0.00,CLR,SCT,0.00,517.0,WeatherDisplay:10.37,2013-03-15 14:58:00,
2013-03-15 11:03:00,46.3,32.3,30.03,SSW,203,13.5,16.0,58,0.00,CLR,SCT,0.00,696.0,WeatherDisplay:10.37,2013-03-15 15:03:00,
2013-03-15 11:08:00,46.5,30.3,30.03,SSW,208,16.3,18.0,53,0.00,CLR,SCT,0.00,786.0,WeatherDisplay:10.37,2013-03-15 15:08:00,
2013-03-15 11:13:00,46.4,31.1,30.02,SSW,200,13.4,17.3,55,0.00,CLR,SCT,0.00,721.0,WeatherDisplay:10.37,2013-03-15 15:13:00,
2013-03-15 11:18:00,45.1,29.0,30.02,SW,214,14.7,18.4,53,0.00,CLR,SCT,0.00,234.0,WeatherDisplay:10.37,2013-03-15 15:18:00,
2013-03-15 11:23:00,46.0,29.3,30.02,SW,216,17.5,17.5,52,0.00,CLR,SCT,0.00,763.0,WeatherDisplay:10.37,2013-03-15 15:23:00,
2013-03-15 11:28:00,46.9,29.2,30.01,SSW,211,11.3,17.3,50,0.00,CLR,SCT,0.00,749.0,WeatherDisplay:10.37,2013-03-15 15:28:00,
2013-03-15 11:33:00,46.1,29.4,30.01,South,186,17.2,18.0,52,0.00,CLR,SCT,0.00,717.0,WeatherDisplay:10.37,2013-03-15 15:33:00,
2013-03-15 11:38:00,46.3,30.5,30.01,SSW,197,12.7,17.3,54,0.00,CLR,SCT,0.00,766.0,WeatherDisplay:10.37,2013-03-15 15:38:00,
2013-03-15 11:43:00,45.9,29.2,30.01,SSW,200,14.8,19.6,52,0.00,CLR,SCT,0.00,413.0,WeatherDisplay:10.37,2013-03-15 15:43:00,
2013-03-15 11:48:00,46.0,30.3,30.01,South,186,13.8,17.0,54,0.00,FEW,SCT,0.00,478.0,WeatherDisplay:10.37,2013-03-15 15:48:00,
2013-03-15 11:53:00,46.3,30.5,30.01,SSW,196,14.4,21.9,54,0.00,SCT,,0.00,568.0,WeatherDisplay:10.37,2013-03-15 15:53:00,
2013-03-15 11:59:00,46.3,29.1,30.00,SSW,205,11.7,16.1,51,0.00,SCT,,0.00,547.0,WeatherDisplay:10.37,2013-03-15 15:59:00,
2013-03-15 12:04:00,45.8,30.1,30.00,South,183,13.6,16.1,54,0.00,SCT,,0.00,455.0,WeatherDisplay:10.37,2013-03-15 16:04:00,
2013-03-15 12:09:00,45.8,29.6,30.00,SSE,166,12.8,18.4,53,0.00,SCT,,0.00,540.0,WeatherDisplay:10.37,2013-03-15 16:09:00,
2013-03-15 12:14:00,46.1,29.9,29.99,SSW,210,14.6,21.9,53,0.00,SCT,,0.00,670.0,WeatherDisplay:10.37,2013-03-15 16:14:00,
2013-03-15 12:19:00,47.3,31.5,29.99,SSW,205,16.7,21.9,54,0.00,FEW,SCT,0.00,548.0,WeatherDisplay:10.37,2013-03-15 16:19:00,
2013-03-15 12:24:00,46.7,29.5,29.98,SSW,195,12.8,17.3,51,0.00,FEW,SCT,0.00,501.0,WeatherDisplay:10.37,2013-03-15 16:24:00,
2013-03-15 12:29:00,47.2,29.5,29.98,SSW,203,13.6,17.3,50,0.00,SCT,,0.00,512.0,WeatherDisplay:10.37,2013-03-15 16:29:00,
2013-03-15 12:34:00,46.8,29.6,29.98,SSW,199,14.8,20.7,51,0.00,SCT,,0.00,450.0,WeatherDisplay:10.37,2013-03-15 16:34:00,
2013-03-15 12:39:00,46.5,29.3,29.98,South,185,13.4,17.3,51,0.00,SCT,,0.00,476.0,WeatherDisplay:10.37,2013-03-15 16:39:00,
2013-03-15 12:44:00,46.3,27.7,29.98,SSW,197,16.9,26.5,48,0.00,SCT,,0.00,329.0,WeatherDisplay:10.37,2013-03-15 16:44:00,
2013-03-15 12:49:00,47.3,28.6,29.98,SSW,201,14.2,20.0,48,0.00,SCT,,0.00,805.0,WeatherDisplay:10.37,2013-03-15 16:49:00,
2013-03-15 12:54:00,48.1,29.3,29.97,South,187,14.9,19.6,48,0.00,SCT,,0.00,796.0,WeatherDisplay:10.37,2013-03-15 16:54:00,
2013-03-15 12:59:00,47.9,28.6,29.96,SSW,199,15.5,19.6,47,0.00,CLR,SCT,0.00,686.0,WeatherDisplay:10.37,2013-03-15 16:59:00,
2013-03-15 13:04:00,47.9,28.6,29.96,SSW,194,19.6,21.9,47,0.00,CLR,SCT,0.00,768.0,WeatherDisplay:10.37,2013-03-15 17:04:00,
2013-03-15 13:09:00,48.6,28.7,29.96,SSW,210,14.6,18.4,46,0.00,CLR,SCT,0.00,745.0,WeatherDisplay:10.37,2013-03-15 17:09:00,
2013-03-15 13:14:00,48.8,30.0,29.95,SSW,199,13.7,19.6,48,0.00,CLR,SCT,0.00,752.0,WeatherDisplay:10.37,2013-03-15 17:14:00,
2013-03-15 13:19:00,49.0,30.7,29.95,SSW,199,10.9,15.0,49,0.00,CLR,SCT,0.00,756.0,WeatherDisplay:10.37,2013-03-15 17:19:00,
2013-03-15 13:24:00,49.8,29.8,29.95,SSW,199,13.3,17.0,46,0.00,CLR,SCT,0.00,773.0,WeatherDisplay:10.37,2013-03-15 17:24:00,
2013-03-15 13:29:00,49.4,30.0,29.95,SW,214,10.4,14.0,47,0.00,CLR,SCT,0.00,747.0,WeatherDisplay:10.37,2013-03-15 17:29:00,
2013-03-15 13:34:00,50.2,31.2,29.95,SSW,201,10.3,15.0,48,0.00,CLR,SCT,0.00,761.0,WeatherDisplay:10.37,2013-03-15 17:34:00,
2013-03-15 13:39:00,50.2,31.8,29.94,South,191,11.7,13.8,49,0.00,CLR,SCT,0.00,782.0,WeatherDisplay:10.37,2013-03-15 17:39:00,
2013-03-15 13:44:00,49.9,29.9,29.94,SSW,205,9.3,12.7,46,0.00,CLR,SCT,0.00,673.0,WeatherDisplay:10.37,2013-03-15 17:44:00,
2013-03-15 13:49:00,50.0,31.1,29.94,SW,232,11.7,15.0,48,0.00,CLR,SCT,0.00,714.0,WeatherDisplay:10.37,2013-03-15 17:49:00,
2013-03-15 13:54:00,50.2,29.1,29.93,SSW,198,12.9,15.0,44,0.00,CLR,SCT,0.00,756.0,WeatherDisplay:10.37,2013-03-15 17:54:00,
2013-03-15 13:59:00,50.4,30.9,29.93,SSW,200,15.1,22.0,47,0.00,CLR,SCT,0.00,749.0,WeatherDisplay:10.37,2013-03-15 17:59:00,
2013-03-15 14:04:00,50.7,30.1,29.92,SSW,196,13.0,17.3,45,0.00,CLR,SCT,0.00,735.0,WeatherDisplay:10.37,2013-03-15 18:04:00,
2013-03-15 14:09:00,50.6,30.6,29.92,SSW,207,13.5,18.4,46,0.00,CLR,SCT,0.00,684.0,WeatherDisplay:10.37,2013-03-15 18:09:00,
2013-03-15 14:14:00,50.8,31.3,29.92,SSW,201,16.8,18.4,47,0.00,CLR,SCT,0.00,659.0,WeatherDisplay:10.37,2013-03-15 18:14:00,
2013-03-15 14:19:00,51.3,31.7,29.92,SW,222,16.2,21.9,47,0.00,CLR,SCT,0.00,638.0,WeatherDisplay:10.37,2013-03-15 18:19:00,
2013-03-15 14:24:00,50.8,27.9,29.91,SSW,213,17.2,19.6,41,0.00,FEW,SCT,0.00,628.0,WeatherDisplay:10.37,2013-03-15 18:24:00,
2013-03-15 14:29:00,51.3,29.0,29.91,SSW,211,19.5,24.2,42,0.00,FEW,SCT,0.00,591.0,WeatherDisplay:10.37,2013-03-15 18:29:00,
2013-03-15 14:34:00,51.5,27.3,29.90,South,183,16.0,21.9,39,0.00,FEW,SCT,0.00,601.0,WeatherDisplay:10.37,2013-03-15 18:34:00,
2013-03-15 14:39:00,51.5,30.8,29.90,SSW,195,16.5,19.6,45,0.00,FEW,SCT,0.00,575.0,WeatherDisplay:10.37,2013-03-15 18:39:00,
2013-03-15 14:44:00,51.1,29.4,29.89,SSW,206,13.8,17.3,43,0.00,FEW,SCT,0.00,515.0,WeatherDisplay:10.37,2013-03-15 18:44:00,
2013-03-15 14:49:00,50.9,30.8,29.89,SSW,199,14.8,17.3,46,0.00,SCT,,0.00,555.0,WeatherDisplay:10.37,2013-03-15 18:49:00,
2013-03-15 14:54:00,51.4,31.3,29.89,SW,216,18.3,27.6,46,0.00,FEW,SCT,0.00,598.0,WeatherDisplay:10.37,2013-03-15 18:54:00,
2013-03-15 14:59:00,52.0,31.3,29.88,South,184,14.8,18.4,45,0.00,FEW,SCT,0.00,564.0,WeatherDisplay:10.37,2013-03-15 18:59:00,
2013-03-15 15:04:00,51.7,29.9,29.88,SSW,209,18.3,27.0,43,0.00,FEW,SCT,0.00,476.0,WeatherDisplay:10.37,2013-03-15 19:04:00,
2013-03-15 15:09:00,51.7,28.7,29.88,South,191,14.4,17.3,41,0.00,SCT,,0.00,501.0,WeatherDisplay:10.37,2013-03-15 19:09:00,
2013-03-15 15:14:00,51.6,30.9,29.88,South,190,16.7,20.7,45,0.00,SCT,,0.00,494.0,WeatherDisplay:10.37,2013-03-15 19:14:00,
2013-03-15 15:19:00,51.3,31.2,29.88,SSW,194,15.6,19.6,46,0.00,SCT,,0.00,429.0,WeatherDisplay:10.37,2013-03-15 19:19:00,
2013-03-15 15:24:00,51.7,33.1,29.88,SSW,210,12.3,13.8,49,0.00,SCT,,0.00,443.0,WeatherDisplay:10.37,2013-03-15 19:24:00,
2013-03-15 15:29:00,51.9,31.7,29.87,SSW,203,11.7,14.0,46,0.00,SCT,,0.00,482.0,WeatherDisplay:10.37,2013-03-15 19:29:00,
2013-03-15 15:34:00,51.9,32.3,29.87,SSW,208,13.2,17.3,47,0.00,SCT,,0.00,489.0,WeatherDisplay:10.37,2013-03-15 19:34:00,
2013-03-15 15:39:00,52.1,30.3,29.87,SSW,194,15.0,18.4,43,0.00,FEW,SCT,0.00,519.0,WeatherDisplay:10.37,2013-03-15 19:39:00,
2013-03-15 15:44:00,52.8,30.9,29.86,SSW,198,14.1,16.1,43,0.00,FEW,SCT,0.00,490.0,WeatherDisplay:10.37,2013-03-15 19:44:00,
2013-03-15 15:49:00,52.7,31.4,29.86,SSW,199,13.5,17.3,44,0.00,FEW,SCT,0.00,517.0,WeatherDisplay:10.37,2013-03-15 19:49:00,
2013-03-15 15:54:00,52.6,32.4,29.86,South,181,11.4,19.6,46,0.00,FEW,SCT,0.00,462.0,WeatherDisplay:10.37,2013-03-15 19:54:00,
2013-03-15 15:59:00,51.3,34.3,29.85,SSW,205,11.9,15.0,52,0.00,FEW,SCT,0.00,482.0,WeatherDisplay:10.37,2013-03-15 19:59:00,
2013-03-15 16:04:00,50.7,34.6,29.85,SSW,205,11.5,18.4,54,0.00,CLR,SCT,0.00,543.0,WeatherDisplay:10.37,2013-03-15 20:04:00,
2013-03-15 16:09:00,51.5,35.4,29.84,South,185,10.1,15.0,54,0.00,CLR,SCT,0.00,520.0,WeatherDisplay:10.37,2013-03-15 20:09:00,
2013-03-15 16:14:00,51.4,35.3,29.84,SSW,201,12.8,18.4,54,0.00,CLR,SCT,0.00,529.0,WeatherDisplay:10.37,2013-03-15 20:14:00,
2013-03-15 16:19:00,50.6,33.1,29.84,SSW,193,13.4,15.0,51,0.00,CLR,SCT,0.00,496.0,WeatherDisplay:10.37,2013-03-15 20:19:00,
2013-03-15 16:24:00,50.5,33.5,29.84,SSW,195,14.5,17.3,52,0.00,CLR,SCT,0.00,496.0,WeatherDisplay:10.37,2013-03-15 20:24:00,
2013-03-15 16:29:00,50.4,33.4,29.83,SSW,209,12.4,15.0,52,0.00,CLR,SCT,0.00,448.0,WeatherDisplay:10.37,2013-03-15 20:29:00,
2013-03-15 16:34:00,50.3,32.4,29.83,SSW,194,10.4,15.0,50,0.00,CLR,SCT,0.00,431.0,WeatherDisplay:10.37,2013-03-15 20:34:00,
2013-03-15 16:39:00,50.3,33.3,29.83,SSW,210,12.0,13.8,52,0.00,CLR,SCT,0.00,415.0,WeatherDisplay:10.37,2013-03-15 20:39:00,
2013-03-15 16:44:00,50.9,32.9,29.83,SSW,201,13.8,19.6,50,0.00,CLR,SCT,0.00,427.0,WeatherDisplay:10.37,2013-03-15 20:44:00,
2013-03-15 16:49:00,51.0,33.5,29.83,SSE,147,12.5,19.6,51,0.00,CLR,SCT,0.00,371.0,WeatherDisplay:10.37,2013-03-15 20:49:00,
2013-03-15 16:54:00,50.8,33.3,29.83,SSW,203,11.9,17.3,51,0.00,CLR,SCT,0.00,302.0,WeatherDisplay:10.37,2013-03-15 20:54:00,
2013-03-15 16:59:00,50.6,32.6,29.83,SSW,193,10.6,12.7,50,0.00,FEW,SCT,0.00,225.0,WeatherDisplay:10.37,2013-03-15 20:59:00,
2013-03-15 17:04:00,50.3,32.4,29.83,SSW,200,11.8,12.7,50,0.00,SCT,,0.00,207.0,WeatherDisplay:10.37,2013-03-15 21:04:00,
2013-03-15 17:09:00,50.3,34.3,29.83,SSW,205,11.7,16.1,54,0.00,SCT,,0.00,155.0,WeatherDisplay:10.37,2013-03-15 21:09:00,
2013-03-15 17:14:00,50.3,32.8,29.82,South,191,10.6,17.3,51,0.00,BKN,SCT,0.00,146.0,WeatherDisplay:10.37,2013-03-15 21:14:00,
2013-03-15 17:19:00,50.2,32.3,29.82,SSW,198,9.3,11.5,50,0.00,BKN,SCT,0.00,144.0,WeatherDisplay:10.37,2013-03-15 21:19:00,
2013-03-15 17:24:00,50.2,33.2,29.82,SSW,201,8.8,11.5,52,0.00,BKN,SCT,0.00,141.0,WeatherDisplay:10.37,2013-03-15 21:24:00,
2013-03-15 17:30:00,50.2,33.7,29.82,SSW,196,8.0,15.0,53,0.00,BKN,SCT,0.00,134.0,WeatherDisplay:10.37,2013-03-15 21:30:00,
2013-03-15 17:35:00,50.2,33.7,29.82,SSW,196,8.0,16.0,53,0.00,BKN,SCT,0.00,125.0,WeatherDisplay:10.37,2013-03-15 21:35:00,
2013-03-15 17:39:00,50.1,33.6,29.81,SSW,206,10.1,11.5,53,0.00,BKN,SCT,0.00,120.0,WeatherDisplay:10.37,2013-03-15 21:39:00,
2013-03-15 17:45:00,50.1,34.1,29.81,SSW,196,9.0,15.0,54,0.00,BKN,SCT,0.00,116.0,WeatherDisplay:10.37,2013-03-15 21:45:00,
2013-03-15 17:50:00,50.0,33.5,29.81,SSW,195,10.0,15.0,53,0.00,BKN,SCT,0.00,107.0,WeatherDisplay:10.37,2013-03-15 21:50:00,
2013-03-15 17:55:00,50.0,34.5,29.81,SSW,195,9.0,13.0,55,0.00,BKN,SCT,0.00,102.0,WeatherDisplay:10.37,2013-03-15 21:55:00,
2013-03-15 17:59:00,50.0,34.9,29.80,SSW,194,7.0,13.0,56,0.00,BKN,SCT,0.00,95.0,WeatherDisplay:10.37,2013-03-15 21:59:00,
2013-03-15 18:05:00,50.1,34.5,29.80,SSW,195,10.0,14.0,55,0.00,BKN,SCT,0.00,86.0,WeatherDisplay:10.37,2013-03-15 22:05:00,
2013-03-15 18:09:00,50.1,34.5,29.80,South,176,10.0,13.0,55,0.00,BKN,SCT,0.00,77.0,WeatherDisplay:10.37,2013-03-15 22:09:00,
2013-03-15 18:14:00,50.1,35.0,29.80,SSW,204,10.4,11.5,56,0.00,BKN,SCT,0.00,70.0,WeatherDisplay:10.37,2013-03-15 22:14:00,
2013-03-15 18:19:00,50.0,35.4,29.80,SSW,199,9.3,11.5,57,0.00,BKN,SCT,0.00,62.0,WeatherDisplay:10.37,2013-03-15 22:19:00,
2013-03-15 18:24:00,49.9,35.2,29.80,SSW,194,8.0,12.0,57,0.00,BKN,SCT,0.00,54.0,WeatherDisplay:10.37,2013-03-15 22:24:00,
2013-03-15 18:30:00,49.7,35.9,29.80,South,190,10.0,15.0,59,0.00,BKN,SCT,0.00,46.0,WeatherDisplay:10.37,2013-03-15 22:30:00,
2013-03-15 18:35:00,49.7,35.5,29.79,South,186,10.0,15.0,58,0.00,BKN,SCT,0.00,37.0,WeatherDisplay:10.37,2013-03-15 22:35:00,
2013-03-15 18:40:00,49.6,35.4,29.79,South,182,9.0,13.0,58,0.00,BKN,SCT,0.00,28.0,WeatherDisplay:10.37,2013-03-15 22:40:00,
2013-03-15 18:45:00,49.4,35.7,29.79,South,191,7.0,13.0,59,0.00,BKN,SCT,0.00,23.0,WeatherDisplay:10.37,2013-03-15 22:45:00,
2013-03-15 18:50:00,49.2,35.9,29.79,South,191,10.0,14.0,60,0.00,BKN,SCT,0.00,18.0,WeatherDisplay:10.37,2013-03-15 22:50:00,
2013-03-15 18:55:00,49.1,35.8,29.79,SSW,192,7.0,12.0,60,0.00,BKN,SCT,0.00,14.0,WeatherDisplay:10.37,2013-03-15 22:55:00,
2013-03-15 19:00:00,49.0,36.5,29.79,South,187,6.0,12.0,62,0.00,BKN,SCT,0.00,9.0,WeatherDisplay:10.37,2013-03-15 23:00:00,
2013-03-15 19:04:00,48.8,36.4,29.79,South,187,7.7,11.0,62,0.00,BKN,SCT,0.00,7.0,WeatherDisplay:10.37,2013-03-15 23:04:00,
2013-03-15 19:09:00,48.7,36.3,29.79,SSW,193,6.8,10.0,62,0.00,FEW,SCT,0.00,0.0,WeatherDisplay:10.37,2013-03-15 23:09:00,
2013-03-15 19:14:00,48.5,36.5,29.79,South,175,6.4,10.4,63,0.00,,SCT,0.00,0.0,WeatherDisplay:10.37,2013-03-15 23:14:00,
2013-03-15 19:20:00,48.1,36.9,29.80,South,187,4.5,6.9,65,0.00,,SCT,0.00,0.0,WeatherDisplay:10.37,2013-03-15 23:20:00,
2013-03-15 19:25:00,47.9,37.1,29.79,South,174,8.0,12.0,66,0.00,,SCT,0.00,0.0,WeatherDisplay:10.37,2013-03-15 23:25:00,
2013-03-15 19:30:00,47.7,37.3,29.79,South,178,6.0,8.0,67,0.00,,SCT,0.00,0.0,WeatherDisplay:10.37,2013-03-15 23:30:00,
2013-03-15 19:35:00,47.5,37.5,29.79,South,174,6.0,9.0,68,0.00,,SCT,0.00,0.0,WeatherDisplay:10.37,2013-03-15 23:35:00,
2013-03-15 19:40:00,47.3,37.6,29.80,South,176,7.0,12.0,69,0.00,,SCT,0.00,0.0,WeatherDisplay:10.37,2013-03-15 23:40:00,
2013-03-15 19:45:00,47.3,38.0,29.79,South,179,3.0,7.0,70,0.00,,SCT,0.00,0.0,WeatherDisplay:10.37,2013-03-15 23:45:00,
2013-03-15 19:50:00,47.1,38.2,29.79,South,180,5.0,9.0,71,0.00,,SCT,0.00,0.0,WeatherDisplay:10.37,2013-03-15 23:50:00,
2013-03-15 19:55:00,47.0,38.1,29.79,South,186,6.0,9.0,71,0.00,,SCT,0.00,0.0,WeatherDisplay:10.37,2013-03-15 23:55:00,
2013-03-15 19:59:00,47.0,37.7,29.80,South,177,6.8,8.0,70,0.00,,SCT,0.00,0.0,WeatherDisplay:10.37,2013-03-15 23:59:00,
2013-03-15 20:04:00,47.0,38.1,29.80,South,187,5.2,6.9,71,0.00,,SCT,0.00,0.0,WeatherDisplay:10.37,2013-03-16 00:04:00,
2013-03-15 20:09:00,47.0,37.7,29.80,SSE,167,5.1,6.9,70,0.00,,SCT,0.00,0.0,WeatherDisplay:10.37,2013-03-16 00:09:00,
2013-03-15 20:15:00,47.0,38.1,29.80,South,187,6.0,10.0,71,0.00,,SCT,0.00,0.0,WeatherDisplay:10.37,2013-03-16 00:15:00,
2013-03-15 20:20:00,46.8,38.2,29.80,South,174,6.5,9.0,72,0.00,,SCT,0.00,0.0,WeatherDisplay:10.37,2013-03-16 00:20:00,
2013-03-15 20:25:00,46.7,38.5,29.80,South,183,6.0,9.0,73,0.00,,SCT,0.00,0.0,WeatherDisplay:10.37,2013-03-16 00:25:00,
2013-03-15 20:30:00,46.5,38.3,29.80,South,184,5.0,7.0,73,0.00,,SCT,0.00,0.0,WeatherDisplay:10.37,2013-03-16 00:30:00,
2013-03-15 20:35:00,46.5,38.3,29.80,South,188,5.0,8.0,73,0.00,,SCT,0.00,0.0,WeatherDisplay:10.37,2013-03-16 00:35:00,
2013-03-15 20:40:00,46.3,38.5,29.79,South,191,5.0,12.0,74,0.00,,SCT,0.00,0.0,WeatherDisplay:10.37,2013-03-16 00:40:00,
2013-03-15 20:45:00,46.4,38.6,29.80,South,190,6.0,10.0,74,0.00,,SCT,0.00,0.0,WeatherDisplay:10.37,2013-03-16 00:45:00,
2013-03-15 20:50:00,46.5,38.6,29.79,South,187,6.0,10.0,74,0.00,,SCT,0.00,0.0,WeatherDisplay:10.37,2013-03-16 00:50:00,
2013-03-15 20:55:00,46.1,38.6,29.79,South,186,5.0,7.0,75,0.00,,SCT,0.00,0.0,WeatherDisplay:10.37,2013-03-16 00:55:00,
2013-03-15 20:59:00,45.6,38.1,29.79,SSW,198,3.8,5.0,75,0.00,,SCT,0.00,0.0,WeatherDisplay:10.37,2013-03-16 00:59:00,
2013-03-15 21:04:00,44.8,38.0,29.79,SSW,199,5.4,8.1,77,0.00,,SCT,0.00,0.0,WeatherDisplay:10.37,2013-03-16 01:04:00,
2013-03-15 21:10:00,44.4,38.0,29.79,SSW,203,6.4,10.4,78,0.00,,SCT,0.00,0.0,WeatherDisplay:10.37,2013-03-16 01:10:00,
2013-03-15 21:15:00,44.3,38.2,29.79,SSW,200,6.0,7.0,79,0.00,,SCT,0.00,0.0,WeatherDisplay:10.37,2013-03-16 01:15:00,
2013-03-15 21:20:00,44.8,38.4,29.79,SSW,204,6.0,9.0,78,0.00,,SCT,0.00,0.0,WeatherDisplay:10.37,2013-03-16 01:20:00,
2013-03-15 21:25:00,44.7,37.6,29.79,SSW,213,9.0,10.0,76,0.00,,SCT,0.00,0.0,WeatherDisplay:10.37,2013-03-16 01:25:00,
2013-03-15 21:30:00,44.2,37.5,29.79,SW,218,7.0,12.0,77,0.00,,SCT,0.00,0.0,WeatherDisplay:10.37,2013-03-16 01:30:00,
2013-03-15 21:35:00,45.2,37.4,29.79,SW,222,7.0,10.0,74,0.00,,SCT,0.00,0.0,WeatherDisplay:10.37,2013-03-16 01:35:00,
2013-03-15 21:40:00,45.1,37.3,29.79,SW,223,6.0,9.0,74,0.00,,SCT,0.00,0.0,WeatherDisplay:10.37,2013-03-16 01:40:00,
2013-03-15 21:45:00,44.8,37.1,29.79,SW,224,6.0,10.0,74,0.00,,SCT,0.00,0.0,WeatherDisplay:10.37,2013-03-16 01:45:00,
2013-03-15 21:49:00,44.9,37.1,29.80,SSW,209,6.8,9.0,74,0.00,,SCT,0.00,0.0,WeatherDisplay:10.37,2013-03-16 01:49:00,
2013-03-15 21:54:00,44.7,36.6,29.80,SSW,208,8.4,10.4,73,0.00,,SCT,0.00,0.0,WeatherDisplay:10.37,2013-03-16 01:54:00,
2013-03-15 21:59:00,45.2,36.7,29.80,SW,228,6.2,6.2,72,0.00,,SCT,0.00,0.0,WeatherDisplay:10.37,2013-03-16 01:59:00,
2013-03-15 22:05:00,45.5,36.6,29.80,SW,228,3.0,12.0,71,0.00,,SCT,0.00,0.0,WeatherDisplay:10.37,2013-03-16 02:05:00,
2013-03-15 22:10:00,45.5,36.6,29.80,SW,220,5.7,6.0,71,0.00,,SCT,0.00,0.0,WeatherDisplay:10.37,2013-03-16 02:10:00,
2013-03-15 22:15:00,45.6,36.8,29.80,SW,217,7.0,9.0,71,0.00,,SCT,0.00,0.0,WeatherDisplay:10.37,2013-03-16 02:15:00,
2013-03-15 22:20:00,45.9,36.7,29.80,SW,217,3.0,6.0,70,0.00,,SCT,0.00,0.0,WeatherDisplay:10.37,2013-03-16 02:20:00,
2013-03-15 22:25:00,45.8,36.6,29.80,SW,222,1.0,4.0,70,0.00,,SCT,0.00,0.0,WeatherDisplay:10.37,2013-03-16 02:25:00,
2013-03-15 22:30:00,45.0,36.5,29.80,SW,224,1.0,3.0,72,0.00,,SCT,0.00,0.0,WeatherDisplay:10.37,2013-03-16 02:30:00,
2013-03-15 22:34:00,44.9,36.1,29.80,SW,221,0.0,1.0,71,0.00,,SCT,0.00,0.0,WeatherDisplay:10.37,2013-03-16 02:34:00,
2013-03-15 22:39:00,45.3,36.4,29.80,SW,219,5.0,6.0,71,0.00,,SCT,0.00,0.0,WeatherDisplay:10.37,2013-03-16 02:39:00,
2013-03-15 22:44:00,45.0,35.8,29.81,SW,224,0.4,2.3,70,0.00,,SCT,0.00,0.0,WeatherDisplay:10.37,2013-03-16 02:44:00,
2013-03-15 22:49:00,44.6,35.8,29.81,SW,225,3.8,4.6,71,0.00,,SCT,0.00,0.0,WeatherDisplay:10.37,2013-03-16 02:49:00,
2013-03-15 22:54:00,44.5,36.0,29.81,SW,226,1.0,3.0,72,0.00,,SCT,0.00,0.0,WeatherDisplay:10.37,2013-03-16 02:54:00,
2013-03-15 23:00:00,44.7,36.2,29.81,SW,226,0.0,2.0,72,0.00,,SCT,0.00,0.0,WeatherDisplay:10.37,2013-03-16 03:00:00,
2013-03-15 23:04:00,44.7,36.3,29.81,SW,225,2.0,4.0,72,0.00,,SCT,0.00,0.0,WeatherDisplay:10.37,2013-03-16 03:04:00,
2013-03-15 23:10:00,45.1,36.6,29.81,SW,224,2.9,3.5,72,0.00,,SCT,0.00,0.0,WeatherDisplay:10.37,2013-03-16 03:10:00,
2013-03-15 23:15:00,45.2,36.3,29.81,SW,224,2.0,4.0,71,0.00,,SCT,0.00,0.0,WeatherDisplay:10.37,2013-03-16 03:15:00,
2013-03-15 23:20:00,45.1,36.3,29.81,SW,221,3.0,4.0,71,0.00,,SCT,0.00,0.0,WeatherDisplay:10.37,2013-03-16 03:20:00,
2013-03-15 23:24:00,45.1,36.7,29.81,SW,214,1.0,4.0,72,0.00,,SCT,0.00,0.0,WeatherDisplay:10.37,2013-03-16 03:24:00,
2013-03-15 23:29:00,45.3,36.8,29.81,SSW,210,0.0,0.0,72,0.00,,SCT,0.00,0.0,WeatherDisplay:10.37,2013-03-16 03:29:00,
2013-03-15 23:34:00,45.2,36.7,29.80,SSW,210,0.0,0.0,72,0.00,,SCT,0.00,0.0,WeatherDisplay:10.37,2013-03-16 03:34:00,
2013-03-15 23:39:00,44.7,37.3,29.80,SSW,210,0.0,0.0,75,0.00,,SCT,0.00,0.0,WeatherDisplay:10.37,2013-03-16 03:39:00,
2013-03-15 23:44:00,44.0,36.6,29.80,SSW,210,0.0,0.0,75,0.00,,SCT,0.00,0.0,WeatherDisplay:10.37,2013-03-16 03:44:00,
2013-03-15 23:50:00,43.5,36.4,29.80,SSW,210,0.0,0.0,76,0.00,,SCT,0.00,0.0,WeatherDisplay:10.37,2013-03-16 03:50:00,
2013-03-15 23:55:00,43.0,36.3,29.80,SSW,210,0.0,0.0,77,0.00,,SCT,0.00,0.0,WeatherDisplay:10.37,2013-03-16 03:55:00,